Regional Weather Roundup
Issued by NWS

Home | Current Version | Previous Version | Graphics & Text | Print | Product List | Glossary On
Versions: 1 2 3 4 5 6 7 8 9 10 11 12 13 14 15 16 17 18 19 20 21 22 23 24 25 26 27 28 29 30 31 32 33 34 35 36 37 38 39 40 41 42 43 44 45 46 47 48 49 50
000
ASUS43 KOAX 280010
RWRNE

WEATHER ROUNDUP FOR NEBRASKA
NATIONAL WEATHER SERVICE OMAHA NE
700 PM CDT SAT MAY 27 2017

NOTES: SATELLITE DATA IS BEING USED TO AUGMENT CLOUD COVER ABOVE
       12000 FEET.
       "FAIR" INDICATES FEW OR NO CLOUDS BELOW 12,000 FEET WITH NO
       SIGNIFICANT WEATHER AND/OR OBSTRUCTIONS TO VISIBILITY.

  * THESE STATIONS DO NOT REPORT WEATHER SUCH AS RAIN...SNOW OR FOG.

NEZ001>004-019>022-054>056-280100-
NEBRASKA PANHANDLE

CITY           SKY/WX    TMP DP  RH WIND       PRES   REMARKS
SCOTTSBLUFF    CLOUDY    63  41  44 W7        30.10S
6HR MIN TEMP:  58; 6HR MAX TEMP:  67; 6HR PCP: TRACE;

ALLIANCE       SUNNY     61  44  53 W9        30.07F
6HR MIN TEMP:  57; 6HR MAX TEMP:  64; 6HR PCP: TRACE;

CHADRON        CLOUDY    64  41  42 SE3       30.06R
6HR MIN TEMP:  54; 6HR MAX TEMP:  67; 6HR PCP:  0.05;

GORDON         FAIR      65  41  40 W13G18    30.03F
6HR MIN TEMP:  60; 6HR MAX TEMP:  66;

KIMBALL        SUNNY     61  39  44 N8        30.15S
SIDNEY         MOSUNNY   60  42  51 N15       30.13R
6HR MIN TEMP:  57; 6HR MAX TEMP:  63;

$$

NEZ057>060-069>072-079>082-280100-
SOUTHWEST NEBRASKA

CITY           SKY/WX    TMP DP  RH WIND       PRES   REMARKS
NORTH PLATTE   CLOUDY    62  52  69 NW3       30.03S
6HR MIN TEMP:  60; 6HR MAX TEMP:  66; 6HR PCP: TRACE;

IMPERIAL       CLOUDY    62  49  62 NE3       30.05F
6HR MIN TEMP:  60; 6HR MAX TEMP:  66; 6HR PCP: TRACE;

LEXINGTON      MOSUNNY   65  54  67 N10       30.00S
MCCOOK         CLOUDY    66  51  58 NW12      30.03R
6HR MIN TEMP:  65; 6HR MAX TEMP:  73;

OGALLALA       PTSUNNY   63  53  69 E5        30.06S
$$

NEZ005>010-023>029-035>040-094-280100-
NORTH CENTRAL NEBRASKA

CITY           SKY/WX    TMP DP  RH WIND       PRES   REMARKS
VALENTINE      SUNNY     68  45  43 SW8       29.97F
6HR MIN TEMP:  58; 6HR MAX TEMP:  70; 6HR PCP:  0.03;

AINSWORTH      PTSUNNY   61  46  57 SW5       29.99F
BROKEN BOW     CLOUDY    61  51  70 NW14      30.01R
6HR MIN TEMP:  61; 6HR MAX TEMP:  66;

O`NEILL        CLOUDY    64  52  64 W8        29.97F
ORD            CLOUDY    62  50  64 NW12      29.98R
6HR MIN TEMP:  62; 6HR MAX TEMP:  70;

THEDFORD       CLOUDY    65  47  51 NW3       30.02F
$$

NEZ041-046>049-061>064-073>077-083>087-280100-
SOUTH CENTRAL NEBRASKA

CITY           SKY/WX    TMP DP  RH WIND       PRES   REMARKS
GRAND ISLAND   CLOUDY    66  54  65 N17       29.96R
6HR MIN TEMP:  66; 6HR MAX TEMP:  75;

AURORA         CLOUDY    68  51  54 N20G25    29.95R
HASTINGS       CLOUDY    68  53  58 N20       29.96R
6HR MIN TEMP:  68; 6HR MAX TEMP:  75;

HEBRON         CLOUDY    75  54  48 NE6       29.90R
HOLDREGE       CLOUDY    65  52  62 N13       29.99R
KEARNEY *      CLOUDY    66  52  59 N15       29.98S
YORK           CLOUDY    72  48  43 N12       29.93R
$$

NEZ011>018-030>034-042>045-280100-
NORTHEAST NEBRASKA

CITY           SKY/WX    TMP DP  RH WIND       PRES   REMARKS
NORFOLK        CLOUDY    66  50  56 NW12      29.92S
6HR MIN TEMP:  66; 6HR MAX TEMP:  74;

ALBION         CLOUDY    66  49  55 N5        29.96S
BLAIR          CLOUDY    69  55  60 E8        29.90S
FREMONT        CLOUDY    71  53  52 E8        29.91R
TEKAMAH        CLOUDY    71  50  47 E7        29.89R
6HR MIN TEMP:  71; 6HR MAX TEMP:  77;

WAYNE          PTSUNNY   67  52  58 N10       29.93F
$$

NEZ050>053-065>068-078-088>093-280100-
SOUTHEAST NEBRASKA

CITY           SKY/WX    TMP DP  RH WIND       PRES   REMARKS
LINCOLN        CLOUDY    72  57  59 E10       29.90R
6HR MIN TEMP:  68; 6HR MAX TEMP:  77;

OMAHA EPPLEY   PTSUNNY   69  53  56 NE7       29.89S
6HR MIN TEMP:  67; 6HR MAX TEMP:  72;

BEATRICE       PTSUNNY   72  60  66 NE8       29.89R
FALLS CITY     CLOUDY    70  61  73 N6        29.85F
6HR MIN TEMP:  65; 6HR MAX TEMP:  72;

NEBRASKA CITY  CLOUDY    69  57  65 N9        29.89S
PLATTSMOUTH    CLOUDY    69  57  65 N6        29.90S
$$

NEZ044-045-051>053-067-280100-
OMAHA AREA

CITY           SKY/WX    TMP DP  RH WIND       PRES   REMARKS
OMAHA EPPLEY   PTSUNNY   69  53  56 NE7       29.89S
6HR MIN TEMP:  67; 6HR MAX TEMP:  72;

BLAIR          CLOUDY    69  55  60 E8        29.90S
FREMONT        CLOUDY    71  53  52 E8        29.91R
MILLARD        CLOUDY    72  57  59 E5        29.90R
OFFUTT AFB     MOSUNNY   69  55  60 NE5       29.89S
PLATTSMOUTH    CLOUDY    69  57  65 N6        29.90S
WAHOO          CLOUDY    71  53  52 E8        29.90R
$$




USA.gov is the U.S. government's official web portal to all federal, state and local government web resources and services.